[[{"header":{"parameterUnit":"m.s-1","parameterCategory":1,"la1":30.2991,"la2":30.254,"lo1":-89.0895,"lo2":-89.0444,"dy":0.0017,"dx":0.0017,"nx":28,"ny":28,"refTime":"2025-07-11T09:00:00:Z","depth":0,"parameterNumber":2,"parameterNumberName":"U-component_of_WINDS"},"data":[0,0,0,0,0,0,0,0,0,0,0,0,0,0,0,0,0,0,0,0,0,0,0,0,0,0,0,0,0,0,0,0,0,0,0,0,0,0,0,0,0,0,0,0,0,0,0,0,0,0,0,0,0,0,0,0,0,0,3.9949,3.9951,0,4.0115,4.0117,4.0119,4.0067,4.0064,4.006,4.0057,4.0228,4.0236,4.0244,0,0,0,0,0,0,0,0,0,0,0,0,0,3.9587,3.9594,3.9949,3.9951,3.9953,4.0115,4.0117,4.012,4.0068,4.0064,4.0059,4.0055,4.0226,4.0235,4.0244,0,0,0,0,0,0,0,0,0,0,0,0,0,3.9748,3.9596,3.9948,3.9947,3.9948,4.0115,4.0117,4.012,4.0069,4.0064,4.0058,4.0053,4.0223,4.0234,4.0246,4.0424,0,0,4.0282,4.0287,0,0,0,0,0,0,0,0,3.9739,3.9761,3.9945,3.9947,3.9949,4.0065,4.0052,4.0222,4.007,4.0023,4.0057,4.0051,4.0178,4.0193,4.0236,4.0432,4.0439,4.0283,4.029,4.0295,4.0298,0,0,0,0,0,0,0,3.9727,3.9754,4.0015,3.9948,3.995,3.9938,3.9955,4.0084,4.0128,4.0027,4.0023,4.0044,4.0179,4.0225,4.024,4.0442,4.0282,4.0293,4.03,4.0305,4.0791,4.0796,0,0,0,0,0,0,3.9715,3.9745,4.0009,4.002,3.9829,3.9949,3.9968,4.0033,4.0127,4.0136,4.0048,4.0041,4.0208,4.0226,4.0246,4.0459,4.0295,4.0306,4.0313,4.0785,4.0792,4.0798,0,0,0,0,0,0,3.9707,3.9739,4.0003,3.9881,3.9914,3.996,4.0035,4.0039,4.0086,4.0143,4.0151,4.0088,4.0204,4.0229,4.038,4.0464,4.0311,4.0322,4.0778,4.0787,4.0795,4.0888,0,0,0,0,0,0,3.9697,3.9737,3.9805,3.9883,3.9921,4.0134,4.004,4.0046,4.0106,4.0098,4.0182,4.0191,4.0202,4.0362,4.0391,4.0478,4.0331,4.0771,4.0782,4.0792,4.0878,4.0899,4.0917,0,0,0,0,0,3.9684,3.9825,3.9808,3.9841,4.0007,4.0139,4.016,4.017,4.0113,4.0182,4.0218,4.0188,4.0451,4.0378,4.041,4.0502,4.0765,4.0779,4.0792,4.0869,4.0895,4.0917,0,0,0,0,0,0,3.9755,3.9835,3.9818,3.9988,4.0057,4.013,4.0217,4.0197,4.0284,4.0273,4.0282,4.0301,4.0455,4.0494,4.0412,4.0678,4.06,4.062,4.0647,4.0672,4.0692,4.0678,4.0341,0,0,0,0,0,3.9791,3.9891,3.9956,4.0099,4.0135,4.017,4.0228,4.023,4.0302,4.0331,4.0378,4.045,4.0548,4.0613,4.0707,4.0884,4.09,4.0962,4.0982,4.0998,4.1015,4.1109,4.1137,4.0842,4.0842,4.0841,0,0,3.9865,3.9921,3.9984,4.0115,4.0169,4.0272,4.0195,4.0308,4.0385,4.0348,4.0492,4.053,4.061,4.0774,4.0849,4.0811,4.11,4.1015,4.1027,4.1035,4.1126,4.1154,4.1179,4.0851,4.0849,4.0848,0,0,4.0052,4.0105,4.023,4.0285,4.0368,4.039,4.042,4.0497,4.052,4.0665,4.0639,4.0731,4.0901,4.0958,4.101,4.1219,4.1194,4.125,4.1352,4.1445,4.1468,4.1488,4.1561,4.1588,4.1267,4.1267,4.1267,0,4.0134,4.0289,4.0297,4.0412,4.047,4.0441,4.0567,4.0621,4.073,4.077,4.0727,4.0938,4.099,4.1166,4.1217,4.1261,4.1295,4.1239,4.1464,4.1485,4.1504,4.1574,4.1601,4.1273,4.1272,4.1272,4.1271,0,4.0384,4.0492,4.0583,4.0688,4.0756,4.0877,4.0903,4.0971,4.0967,4.0994,4.1142,4.1204,4.1309,4.1351,4.1349,4.1527,4.1501,4.1461,4.1381,4.1538,4.1603,4.163,4.1282,4.128,4.1278,4.1276,0,0,4.0619,4.0727,4.076,4.0807,4.0896,4.0979,4.1098,4.1201,4.1258,4.1335,4.1434,4.1578,4.1542,4.16,4.1604,4.1686,4.1845,4.1635,4.1637,4.167,4.2044,4.2071,4.2102,4.183,4.1835,4.1839,4.2036,0,4.0813,4.1021,4.1031,4.122,4.1319,4.1294,4.1397,4.1463,4.1492,4.158,4.1612,4.1713,4.1658,4.1693,4.1772,4.1809,4.192,4.1795,4.1921,4.1925,4.1899,4.2137,4.2167,4.2349,4.2062,4.2066,4.2069,0,4.1065,4.1149,4.1347,4.1421,4.1463,4.1556,4.1649,4.1735,4.1809,4.1824,4.1889,4.1881,4.2003,4.1921,4.2087,4.2002,4.2055,4.2081,4.2088,4.2098,4.2005,4.2151,4.2408,4.2435,4.211,4.2107,4.2104,0,4.1214,4.1377,4.1516,4.1557,4.1647,4.1713,4.1753,4.1822,4.1882,4.1965,4.2004,4.21,4.2153,4.2227,4.2245,4.2184,4.2411,4.2331,4.2426,4.2426,4.2473,4.247,4.274,4.2511,4.2511,4.251,4.251,0,4.1428,4.155,4.1584,4.1669,4.1805,4.1817,4.1951,4.1987,4.2048,4.214,4.2125,4.2212,4.2231,4.2322,4.2337,4.2472,4.2496,4.2511,4.2513,4.2511,4.2509,4.2544,4.2531,4.2518,4.2516,4.2515,4.2513,0,4.1616,4.1644,4.1794,4.1867,4.1888,4.1985,4.2047,4.2129,4.2156,4.2272,4.23,4.2343,4.2448,4.2474,4.2601,4.2611,4.2769,4.2761,4.2744,4.2743,4.2835,4.2825,4.3136,4.3176,4.2923,4.2926,4.2928,0,4.1749,4.1842,4.1925,4.1985,4.2028,4.2126,4.2187,4.2203,4.2267,4.2358,4.2429,4.2533,4.2616,4.2786,4.2828,4.2925,4.2916,4.3019,4.2931,4.2925,4.2915,4.2908,4.2917,4.3035,4.3037,4.304,4.3041,0,4.1982,4.1991,4.208,4.2174,4.2247,4.2323,4.2394,4.2444,4.247,4.2543,4.2651,4.2715,4.2844,4.2947,4.3044,4.3085,4.3067,4.3069,4.3096,4.3093,4.3078,4.3085,4.2787,4.3061,4.3059,4.3058,4.3057,4.3056,4.2145,4.2226,4.2296,4.2395,4.2451,4.2518,4.2598,4.2635,4.2725,4.283,4.2834,4.2951,4.3022,4.315,4.3197,4.3288,4.3257,4.3296,4.3306,4.3314,4.3321,4.3066,4.3306,4.3306,4.3305,4.3305,4.3304,0,4.2374,4.2418,4.251,4.261,4.2688,4.2665,4.2743,4.281,4.2912,4.298,4.3062,4.3185,4.3285,4.3335,4.3433,4.3497,4.3491,4.3522,4.3516,4.3525,4.3345,4.3311,4.3525,4.3525,4.3525,4.3524,4.3524,4.3524,4.2502,4.2637,4.2655,4.2817,4.286,4.2974,4.302,4.3082,4.3135,4.3273,4.3356,4.3388,4.3448,4.3551,4.3641,4.3653,4.3689,4.3723,4.3731,4.3561,4.3538,4.3517,4.3485,4.3732,4.3732,4.3904,4.3906,4.3907]},{"header":{"parameterUnit":"m.s-1","parameterCategory":1,"la1":30.2991,"la2":30.254,"lo1":-89.0895,"lo2":-89.0444,"dy":0.0017,"dx":0.0017,"nx":28,"ny":28,"refTime":"2025-07-11T09:00:00:Z","depth":0,"parameterNumber":3,"parameterNumberName":"V-component_of_WINDS"},"data":[0,0,0,0,0,0,0,0,0,0,0,0,0,0,0,0,0,0,0,0,0,0,0,0,0,0,0,0,0,0,0,0,0,0,0,0,0,0,0,0,0,0,0,0,0,0,0,0,0,0,0,0,0,0,0,0,0,0,1.3835,1.3836,0,1.395,1.3951,1.3952,1.3926,1.3924,1.3922,1.392,1.4039,1.4044,1.405,0,0,0,0,0,0,0,0,0,0,0,0,0,1.3595,1.3599,1.3835,1.3836,1.3838,1.3949,1.3951,1.3952,1.3927,1.3924,1.3921,1.3919,1.4038,1.4044,1.405,0,0,0,0,0,0,0,0,0,0,0,0,0,1.3703,1.3601,1.3835,1.3838,1.384,1.3949,1.3951,1.3953,1.3927,1.3924,1.3921,1.3918,1.4036,1.4043,1.4051,1.4165,0,0,1.4075,1.4078,0,0,0,0,0,0,0,0,1.3697,1.3712,1.3836,1.3838,1.384,1.392,1.391,1.4024,1.3928,1.3894,1.392,1.3916,1.4002,1.4013,1.4042,1.417,1.4175,1.4076,1.408,1.4084,1.4086,0,0,0,0,0,0,0,1.369,1.3707,1.388,1.3838,1.384,1.3835,1.3846,1.3932,1.3965,1.3897,1.3895,1.3909,1.4003,1.4034,1.4044,1.4177,1.4075,1.4082,1.4087,1.409,1.4405,1.4408,0,0,0,0,0,0,1.368,1.3701,1.3877,1.3884,1.3759,1.3841,1.3855,1.3898,1.3964,1.3971,1.3912,1.3907,1.4022,1.4035,1.4048,1.4186,1.4084,1.4091,1.4095,1.4401,1.4405,1.4409,0,0,0,0,0,0,1.3675,1.3696,1.3872,1.3792,1.3814,1.3849,1.3898,1.3902,1.3933,1.3975,1.3981,1.3937,1.402,1.4037,1.4136,1.419,1.4094,1.4102,1.4397,1.4402,1.4407,1.4462,0,0,0,0,0,0,1.3669,1.3695,1.3738,1.3793,1.3818,1.3957,1.3901,1.3906,1.3946,1.3942,1.4001,1.4008,1.4019,1.4124,1.4143,1.4199,1.4108,1.4392,1.4399,1.4406,1.4456,1.4469,1.448,0,0,0,0,0,1.366,1.3749,1.374,1.3762,1.3873,1.396,1.3975,1.3985,1.3951,1.3995,1.4022,1.4006,1.418,1.4134,1.4156,1.4215,1.4389,1.4397,1.4405,1.4451,1.4467,1.448,0,0,0,0,0,0,1.3701,1.3757,1.3747,1.3857,1.3904,1.3956,1.4012,1.4002,1.4061,1.4054,1.4065,1.4079,1.4179,1.4206,1.4154,1.4328,1.428,1.4293,1.4307,1.4322,1.4334,1.4326,1.4114,0,0,0,0,0,1.3722,1.3788,1.3833,1.3926,1.395,1.3977,1.4015,1.4019,1.4069,1.4089,1.4123,1.4172,1.4238,1.4281,1.4344,1.4459,1.4472,1.451,1.4522,1.4532,1.4544,1.4606,1.4624,1.4436,1.4436,1.4436,0,0,1.3768,1.3806,1.3848,1.3935,1.3972,1.404,1.3994,1.4068,1.4119,1.41,1.4195,1.4222,1.4278,1.4385,1.4434,1.4411,1.4598,1.4542,1.455,1.4556,1.4617,1.4635,1.465,1.4442,1.4441,1.444,0,0,1.3886,1.3922,1.4003,1.404,1.4096,1.4113,1.4133,1.4186,1.4203,1.4298,1.4285,1.4346,1.4459,1.45,1.4535,1.4667,1.4655,1.4687,1.4752,1.4813,1.4828,1.4841,1.4889,1.4906,1.4698,1.4698,1.4698,0,1.3936,1.4038,1.4046,1.4121,1.416,1.4145,1.4227,1.4264,1.4338,1.4365,1.4338,1.448,1.4516,1.4632,1.4664,1.4693,1.4716,1.4681,1.4825,1.4838,1.4851,1.4897,1.4914,1.4702,1.4702,1.4701,1.4701,0,1.4097,1.4168,1.4227,1.4298,1.4343,1.4422,1.4442,1.4487,1.4486,1.4507,1.4604,1.4646,1.4718,1.4745,1.4746,1.4862,1.4846,1.4822,1.4774,1.4872,1.4915,1.4933,1.4707,1.4706,1.4705,1.4704,0,0,1.4246,1.4319,1.4341,1.4373,1.4433,1.4488,1.4566,1.4635,1.4674,1.4725,1.4791,1.4887,1.4864,1.4904,1.4909,1.4963,1.5065,1.4932,1.4933,1.4956,1.5197,1.5216,1.5236,1.5057,1.506,1.5063,1.5192,0,1.437,1.4507,1.4516,1.464,1.4706,1.4691,1.4759,1.4804,1.4824,1.4883,1.4906,1.4974,1.4939,1.4963,1.5015,1.5042,1.5114,1.5032,1.5119,1.5122,1.5107,1.5258,1.5279,1.5399,1.5209,1.5212,1.5214,0,1.4534,1.459,1.472,1.4771,1.4799,1.486,1.4924,1.498,1.503,1.5041,1.5085,1.5082,1.5162,1.511,1.5221,1.5165,1.5201,1.5219,1.5224,1.5234,1.5175,1.5273,1.5438,1.5456,1.5241,1.5239,1.5237,0,1.4631,1.4738,1.483,1.4858,1.4919,1.4962,1.499,1.5036,1.5077,1.5133,1.516,1.5224,1.526,1.531,1.5324,1.5285,1.5435,1.5384,1.5448,1.5447,1.5481,1.5479,1.5655,1.5502,1.5502,1.5502,1.5501,0,1.477,1.4851,1.4875,1.4931,1.5021,1.503,1.5119,1.5144,1.5185,1.5247,1.5238,1.5296,1.5311,1.5372,1.5384,1.5474,1.549,1.5502,1.5505,1.5504,1.5503,1.5529,1.5521,1.5506,1.5505,1.5504,1.5504,0,1.4894,1.4913,1.5013,1.5062,1.5076,1.514,1.5182,1.5237,1.5256,1.5334,1.5353,1.5382,1.5454,1.5472,1.5558,1.5566,1.5673,1.5667,1.5656,1.5656,1.5719,1.5713,1.5919,1.5946,1.5774,1.5776,1.5777,0,1.4982,1.5044,1.5099,1.514,1.5169,1.5234,1.5275,1.5286,1.5329,1.5391,1.5438,1.5508,1.5565,1.5679,1.5709,1.5774,1.577,1.5838,1.578,1.5777,1.5773,1.5769,1.5776,1.5849,1.5851,1.5852,1.5854,0,1.5137,1.5143,1.5203,1.5266,1.5315,1.5365,1.5414,1.5447,1.5465,1.5514,1.5586,1.563,1.5717,1.5787,1.5852,1.5881,1.5871,1.5871,1.589,1.589,1.5882,1.5888,1.5687,1.5867,1.5866,1.5865,1.5864,1.5863,1.5247,1.5301,1.5348,1.5415,1.5452,1.5497,1.5551,1.5576,1.5636,1.5707,1.571,1.5788,1.5836,1.5923,1.5956,1.6018,1.5998,1.6024,1.6031,1.6038,1.6043,1.5871,1.6029,1.6029,1.6029,1.6028,1.6028,0,1.5402,1.5432,1.5493,1.556,1.5612,1.5596,1.5649,1.5694,1.5763,1.5809,1.5864,1.5947,1.6015,1.6049,1.6116,1.6159,1.6156,1.6176,1.6174,1.6181,1.6057,1.6035,1.6177,1.6177,1.6177,1.6177,1.6177,1.6177,1.5489,1.558,1.5592,1.5701,1.573,1.5806,1.5838,1.5879,1.5915,1.6008,1.6064,1.6085,1.6126,1.6196,1.6257,1.6265,1.6291,1.6314,1.632,1.6205,1.6189,1.6175,1.6154,1.6319,1.632,1.6439,1.644,1.6441]}]]